Weather History for Tulsa, OK

Change the Weather History Date:

Sunday, December 11, 2011

  Actual Average Record
Temperature  
Mean Temperature 40 °F 40 °F  
Max Temperature 52 °F 50 °F 76 °F (1929)
Min Temperature 27 °F 30 °F 4 °F (1917)
Degree Days  
Heating Degree Days 25 25  
Month to date heating degree days 294 259  
Since 1 July heating degree days 871 895  
Moisture  
Dew Point 29 °F    
Average Humidity 66    
Maximum Humidity 92    
Minimum Humidity 39    
Precipitation  
Precipitation T in 0.09 in 1.07 in (2007)
Month to date precipitation 0.71 0.95  
Year to date precipitation 31.25 39.43  
Sea Level Pressure  
Sea Level Pressure 30.37 in    
Wind  
Wind Speed 9 mph (SSE)    
Max Wind Speed 21 mph    
Max Gust Speed 24 mph    
Visibility 8 miles    
Events Rain    
T = Trace of Precipitation, MM = Missing Value Source: NWS Daily Summary

Daily Weather History Graph

Daily Weather History Graph

Search for Another Location

Airport:

Trip Planner

Search our weather history database for the weather conditions in past years. The results will help you decide how hot, cold, wet, or windy it might be!

Date:

Astronomy

Dec. 11, 2011 Rise Set
Actual Time 7:24 AM CST 5:09 PM CST
Civil Twilight 6:55 AM CST 5:37 PM CST
Nautical Twilight 6:23 AM CST 6:09 PM CST
Astronomical Twilight 5:52 AM CST 6:41 PM CST
Moon 6:20 PM CST (12/11) 8:13 AM CST (12/11)
Length of Visible Light 10h 41m
Length of Day
9h 44m
Full, 99% of the Moon is Illuminated
Dec 11
Full
Dec 17
Last Quarter
Dec 24
New
Jan 1
First Quarter
Jan 9
Full

Hourly Weather History & Observations

Time (CST) Temp. Windchill Dew Point Humidity Pressure Visibility Wind Dir Wind Speed Gust Speed Precip Events Conditions
12:53 AM 34.0 °F 28.0 °F 27.0 °F 75% 30.48 in 9.0 mi South 6.9 mph - N/A   Clear
1:53 AM 34.0 °F 27.2 °F 28.0 °F 79% 30.47 in 7.0 mi SSE 8.1 mph - N/A   Clear
2:53 AM 33.1 °F 30.0 °F 27.0 °F 78% 30.45 in 7.0 mi South 3.5 mph - N/A   Clear
3:53 AM 28.9 °F 22.8 °F 26.1 °F 89% 30.45 in 7.0 mi SSE 5.8 mph - N/A   Clear
4:53 AM 32.0 °F 26.4 °F 28.0 °F 85% 30.43 in 6.0 mi SSE 5.8 mph - N/A   Clear
5:53 AM 28.9 °F 23.9 °F 26.1 °F 89% 30.43 in 6.0 mi SSE 4.6 mph - N/A   Clear
6:53 AM 28.9 °F 25.2 °F 26.1 °F 89% 30.44 in 6.0 mi SE 3.5 mph - N/A   Clear
7:53 AM 30.0 °F 23.2 °F 27.0 °F 88% 30.44 in 4.0 mi SSE 6.9 mph - N/A   Clear
8:53 AM 33.8 °F 27.0 °F 30.2 °F 87% 30.43 in 5.0 mi SSE 8.1 mph - N/A   Clear
9:53 AM 39.0 °F 31.8 °F 32.0 °F 76% 30.46 in 7.0 mi South 11.5 mph - N/A   Partly Cloudy
10:53 AM 43.0 °F 35.7 °F 32.0 °F 65% 30.44 in 10.0 mi South 15.0 mph - N/A   Partly Cloudy
11:53 AM 46.9 °F - 32.0 °F 56% 30.40 in 10.0 mi South 11.5 mph - N/A   Clear
12:53 PM 48.9 °F - 32.0 °F 52% 30.36 in 10.0 mi SSE 11.5 mph - N/A   Partly Cloudy
1:53 PM 51.1 °F - 30.9 °F 46% 30.33 in 10.0 mi SSE 9.2 mph - N/A   Partly Cloudy
2:53 PM 50.0 °F - 28.9 °F 44% 30.32 in 10.0 mi SSE 15.0 mph 18.4 mph N/A   Scattered Clouds
3:53 PM 50.0 °F - 27.0 °F 41% 30.31 in 10.0 mi South 11.5 mph - N/A   Partly Cloudy
4:53 PM 48.9 °F - 27.0 °F 43% 30.31 in 10.0 mi South 11.5 mph - N/A   Scattered Clouds
5:53 PM 48.0 °F - 28.9 °F 48% 30.30 in 10.0 mi SSE 8.1 mph - N/A   Scattered Clouds
6:53 PM 46.0 °F 41.4 °F 32.0 °F 58% 30.30 in 10.0 mi SE 9.2 mph - 0.00 in   Overcast
7:53 PM 45.0 °F 41.2 °F 32.0 °F 60% 30.30 in 10.0 mi SE 6.9 mph - 0.00 in   Overcast
8:53 PM 46.0 °F 41.4 °F 30.0 °F 54% 30.29 in 10.0 mi SSE 9.2 mph - N/A   Overcast
9:53 PM 45.0 °F 39.3 °F 30.0 °F 56% 30.28 in 10.0 mi SSE 11.5 mph - 0.00 in   Overcast
10:53 PM 44.6 °F 38.8 °F 28.4 °F 53% 30.26 in 10.0 mi SSE 11.5 mph - N/A   Mostly Cloudy
11:53 PM 44.1 °F 38.6 °F 28.9 °F 55% 30.27 in 10.0 mi SSE 10.4 mph - 0.00 in Rain Light Rain